<?xml version='1.0' encoding='UTF-8'?>
<gpx xmlns="http://www.topografix.com/GPX/1/1" creator="www.balnam.be" version="1.1" xmlns:xsi="http://www.w3.org/2001/XMLSchema-instance" xsi:schemaLocation="http://www.topografix.com/GPX/1/1 http://www.topografix.com/GPX/1/1/gpx.xsd">
<trk>
<name>llgcn17</name>
<cmt>q</cmt>
<desc>Chenée Chemin n°17 </desc>
<link href="https://chemins.be/chenee/chemin/17"/><trkseg>
<trkpt lat="50.613607" lon="5.621103"><time>2026-05-04T16:11:09Z</time></trkpt>
<trkpt lat="50.612893" lon="5.620961"><time>2026-05-04T16:21:09Z</time></trkpt>
</trkseg>
</trk>
<trk>
<name>llgcn2</name>
<cmt>q</cmt>
<desc>Chenée Chemin n°2 Rue Sainte Anne</desc>
<link href="https://chemins.be/chenee/chemin/2"/><trkseg>
<trkpt lat="50.612251" lon="5.629197"><time>2026-05-04T16:11:09Z</time></trkpt>
<trkpt lat="50.612087" lon="5.630513"><time>2026-05-04T16:21:09Z</time></trkpt>
<trkpt lat="50.612523" lon="5.631478"><time>2026-05-04T16:31:09Z</time></trkpt>
</trkseg></trk>
<trk>
<name>llgcn2</name>
<cmt>v</cmt>
<desc>Chenée Chemin n°2 Rue Sainte Anne</desc>
<link href="https://chemins.be/chenee/chemin/2"/><trkseg>
<trkpt lat="50.612523" lon="5.631478"><time>2026-05-04T16:31:09Z</time></trkpt>
<trkpt lat="50.612771" lon="5.631908"><time>2026-05-04T16:41:09Z</time></trkpt>
<trkpt lat="50.612962" lon="5.632573"><time>2026-05-04T16:51:09Z</time></trkpt>
</trkseg></trk>
<trk>
<name>llgcn2</name>
<cmt>r</cmt>
<desc>Chenée Chemin n°2 Rue Sainte Anne</desc>
<link href="https://chemins.be/chenee/chemin/2"/><trkseg>
<trkpt lat="50.612962" lon="5.632573"><time>2026-05-04T16:51:09Z</time></trkpt>
<trkpt lat="50.613431" lon="5.633581"><time>2026-05-04T17:01:09Z</time></trkpt>
<trkpt lat="50.613989" lon="5.633910"><time>2026-05-04T17:11:09Z</time></trkpt>
<trkpt lat="50.614515" lon="5.635040"><time>2026-05-04T17:21:09Z</time></trkpt>
</trkseg></trk>
<trk>
<name>llgcn2</name>
<cmt>q</cmt>
<desc>Chenée Chemin n°2 Rue Sainte Anne</desc>
<link href="https://chemins.be/chenee/chemin/2"/><trkseg>
<trkpt lat="50.614515" lon="5.635040"><time>2026-05-04T17:21:09Z</time></trkpt>
<trkpt lat="50.614877" lon="5.636286"><time>2026-05-04T17:31:09Z</time></trkpt>
<trkpt lat="50.615231" lon="5.637090"><time>2026-05-04T17:41:09Z</time></trkpt>
</trkseg></trk>
<trk>
<name>llgcn2</name>
<cmt>v</cmt>
<desc>Chenée Chemin n°2 Rue Sainte Anne</desc>
<link href="https://chemins.be/chenee/chemin/2"/><trkseg>
<trkpt lat="50.615231" lon="5.637090"><time>2026-05-04T17:41:09Z</time></trkpt>
<trkpt lat="50.615651" lon="5.638211"><time>2026-05-04T17:51:09Z</time></trkpt>
<trkpt lat="50.615845" lon="5.639072"><time>2026-05-04T18:01:09Z</time></trkpt>
</trkseg>
</trk>
<trk>
<name>llgcn20</name>
<cmt>v</cmt>
<desc>Chenée Chemin n°20 Aux piedroux / Rue Sainte Anne / Aux Piedroux</desc>
<link href="https://chemins.be/chenee/chemin/20"/><trkseg>
<trkpt lat="50.615240" lon="5.637155"><time>2026-05-04T16:11:09Z</time></trkpt>
<trkpt lat="50.615310" lon="5.634839"><time>2026-05-04T16:21:09Z</time></trkpt>
</trkseg></trk>
<trk>
<name>llgcn20</name>
<cmt>r</cmt>
<desc>Chenée Chemin n°20 Aux piedroux / Rue Sainte Anne / Aux Piedroux</desc>
<link href="https://chemins.be/chenee/chemin/20"/><trkseg>
<trkpt lat="50.615310" lon="5.634839"><time>2026-05-04T16:21:09Z</time></trkpt>
<trkpt lat="50.615745" lon="5.633748"><time>2026-05-04T16:31:09Z</time></trkpt>
</trkseg></trk>
<trk>
<name>llgcn20</name>
<cmt>v</cmt>
<desc>Chenée Chemin n°20 Aux piedroux / Rue Sainte Anne / Aux Piedroux</desc>
<link href="https://chemins.be/chenee/chemin/20"/><trkseg>
<trkpt lat="50.615745" lon="5.633748"><time>2026-05-04T16:31:09Z</time></trkpt>
<trkpt lat="50.616294" lon="5.634512"><time>2026-05-04T16:41:09Z</time></trkpt>
<trkpt lat="50.616532" lon="5.634900"><time>2026-05-04T16:51:09Z</time></trkpt>
<trkpt lat="50.616663" lon="5.635257"><time>2026-05-04T17:01:09Z</time></trkpt>
<trkpt lat="50.617090" lon="5.635678"><time>2026-05-04T17:11:09Z</time></trkpt>
</trkseg>
</trk>
<trk>
<name>llgcn27</name>
<cmt>v</cmt>
<desc>Chenée Sentier n°27 </desc>
<link href="https://chemins.be/chenee/sentier/27"/><trkseg>
<trkpt lat="50.620160" lon="5.626440"><time>2026-05-04T16:11:09Z</time></trkpt>
<trkpt lat="50.619619" lon="5.628374"><time>2026-05-04T16:21:09Z</time></trkpt>
</trkseg>
</trk>
<trk>
<name>llgcn28</name>
<cmt>r</cmt>
<desc>Chenée Sentier n°28 </desc>
<link href="https://chemins.be/chenee/sentier/28"/><trkseg>
<trkpt lat="50.614052" lon="5.633903"><time>2026-05-04T16:11:09Z</time></trkpt>
<trkpt lat="50.613108" lon="5.628374"><time>2026-05-04T16:21:09Z</time></trkpt>
</trkseg></trk>
<trk>
<name>llgcn28</name>
<cmt>q</cmt>
<desc>Chenée Sentier n°28 </desc>
<link href="https://chemins.be/chenee/sentier/28"/><trkseg>
<trkpt lat="50.613108" lon="5.628374"><time>2026-05-04T16:21:09Z</time></trkpt>
<trkpt lat="50.612451" lon="5.624692"><time>2026-05-04T16:31:09Z</time></trkpt>
<trkpt lat="50.612156" lon="5.624327"><time>2026-05-04T16:41:09Z</time></trkpt>
</trkseg>
</trk>
<trk>
<name>llgcn30</name>
<cmt>v</cmt>
<desc>Chenée Sentier n°30 Rue des Bédennes</desc>
<link href="https://chemins.be/chenee/sentier/30"/><trkseg>
<trkpt lat="50.616359" lon="5.615888"><time>2026-05-04T16:11:09Z</time></trkpt>
<trkpt lat="50.616582" lon="5.616077"><time>2026-05-04T16:21:09Z</time></trkpt>
<trkpt lat="50.616906" lon="5.616086"><time>2026-05-04T16:31:09Z</time></trkpt>
<trkpt lat="50.617240" lon="5.615982"><time>2026-05-04T16:41:09Z</time></trkpt>
</trkseg>
</trk>
<trk>
<name>llgcn31</name>
<cmt>v</cmt>
<desc>Chenée Chemin n°31 </desc>
<link href="https://chemins.be/chenee/chemin/31"/><trkseg>
<trkpt lat="50.612978" lon="5.632627"><time>2026-05-04T16:11:09Z</time></trkpt>
<trkpt lat="50.612771" lon="5.631894"><time>2026-05-04T16:21:09Z</time></trkpt>
<trkpt lat="50.612481" lon="5.631533"><time>2026-05-04T16:31:09Z</time></trkpt>
</trkseg>
</trk>
<trk>
<name>llgcn32</name>
<cmt>r</cmt>
<desc>Chenée Sentier n°32 </desc>
<link href="https://chemins.be/chenee/sentier/32"/><trkseg>
<trkpt lat="50.619651" lon="5.618344"><time>2026-05-04T16:11:09Z</time></trkpt>
<trkpt lat="50.620204" lon="5.619195"><time>2026-05-04T16:21:09Z</time></trkpt>
<trkpt lat="50.620917" lon="5.622480"><time>2026-05-04T16:31:09Z</time></trkpt>
</trkseg></trk>
<trk>
<name>llgcn32</name>
<cmt>s</cmt>
<desc>Chenée Sentier n°32 </desc>
<link href="https://chemins.be/chenee/sentier/32"/><trkseg>
<trkpt lat="50.620917" lon="5.622480"><time>2026-05-04T16:31:09Z</time></trkpt>
<trkpt lat="50.621271" lon="5.622981"><time>2026-05-04T16:41:09Z</time></trkpt>
<trkpt lat="50.621562" lon="5.625020"><time>2026-05-04T16:51:09Z</time></trkpt>
<trkpt lat="50.621403" lon="5.625470"><time>2026-05-04T17:01:09Z</time></trkpt>
</trkseg></trk>
<trk>
<name>llgcn32</name>
<cmt>r</cmt>
<desc>Chenée Sentier n°32 </desc>
<link href="https://chemins.be/chenee/sentier/32"/><trkseg>
<trkpt lat="50.621403" lon="5.625470"><time>2026-05-04T17:01:09Z</time></trkpt>
<trkpt lat="50.621530" lon="5.626271"><time>2026-05-04T17:11:09Z</time></trkpt>
</trkseg>
</trk>
<trk>
<name>llgcn33</name>
<cmt>r</cmt>
<desc>Chenée Sentier n°33 Sentier du Point de Vue</desc>
<link href="https://chemins.be/chenee/sentier/33"/><trkseg>
<trkpt lat="50.618239" lon="5.614319"><time>2026-05-04T16:11:09Z</time></trkpt>
<trkpt lat="50.618321" lon="5.613684"><time>2026-05-04T16:21:09Z</time></trkpt>
<trkpt lat="50.618431" lon="5.613142"><time>2026-05-04T16:31:09Z</time></trkpt>
<trkpt lat="50.618582" lon="5.613189"><time>2026-05-04T16:41:09Z</time></trkpt>
<trkpt lat="50.618731" lon="5.612772"><time>2026-05-04T16:51:09Z</time></trkpt>
</trkseg>
</trk>
<trk>
<name>llgcn34</name>
<cmt>v</cmt>
<desc>Chenée Sentier n°34 </desc>
<link href="https://chemins.be/chenee/sentier/34"/><trkseg>
<trkpt lat="50.624041" lon="5.633402"><time>2026-05-04T16:11:09Z</time></trkpt>
<trkpt lat="50.622544" lon="5.634125"><time>2026-05-04T16:21:09Z</time></trkpt>
</trkseg></trk>
<trk>
<name>llgcn34</name>
<cmt>q</cmt>
<desc>Chenée Sentier n°34 </desc>
<link href="https://chemins.be/chenee/sentier/34"/><trkseg>
<trkpt lat="50.622544" lon="5.634125"><time>2026-05-04T16:21:09Z</time></trkpt>
<trkpt lat="50.623093" lon="5.636335"><time>2026-05-04T16:31:09Z</time></trkpt>
<trkpt lat="50.623488" lon="5.636986"><time>2026-05-04T16:41:09Z</time></trkpt>
</trkseg>
</trk>
<trk>
<name>llgcn35</name>
<cmt>v</cmt>
<desc>Chenée Sentier n°35 </desc>
<link href="https://chemins.be/chenee/sentier/35"/><trkseg>
<trkpt lat="50.621239" lon="5.627903"><time>2026-05-04T16:11:09Z</time></trkpt>
<trkpt lat="50.620919" lon="5.628318"><time>2026-05-04T16:21:09Z</time></trkpt>
<trkpt lat="50.620818" lon="5.628570"><time>2026-05-04T16:31:09Z</time></trkpt>
<trkpt lat="50.620573" lon="5.628790"><time>2026-05-04T16:41:09Z</time></trkpt>
<trkpt lat="50.620369" lon="5.629321"><time>2026-05-04T16:51:09Z</time></trkpt>
</trkseg>
</trk>
<trk>
<name>llgcn36</name>
<cmt>v</cmt>
<desc>Chenée Sentier n°36 Pazé del Vingne des Beddines</desc>
<link href="https://chemins.be/chenee/sentier/36"/><trkseg>
<trkpt lat="50.618505" lon="5.615785"><time>2026-05-04T16:11:09Z</time></trkpt>
<trkpt lat="50.618726" lon="5.614635"><time>2026-05-04T16:21:09Z</time></trkpt>
</trkseg>
</trk>
<trk>
<name>llgcn40</name>
<cmt>v</cmt>
<desc>Chenée Sentier n°40 </desc>
<link href="https://chemins.be/chenee/sentier/40"/><trkseg>
<trkpt lat="50.618951" lon="5.628061"><time>2026-05-04T16:11:09Z</time></trkpt>
<trkpt lat="50.618766" lon="5.628415"><time>2026-05-04T16:21:09Z</time></trkpt>
<trkpt lat="50.618728" lon="5.629243"><time>2026-05-04T16:31:09Z</time></trkpt>
<trkpt lat="50.618833" lon="5.630378"><time>2026-05-04T16:41:09Z</time></trkpt>
<trkpt lat="50.618536" lon="5.630467"><time>2026-05-04T16:51:09Z</time></trkpt>
<trkpt lat="50.618490" lon="5.630707"><time>2026-05-04T17:01:09Z</time></trkpt>
</trkseg>
</trk>
<trk>
<name>llgcn5</name>
<cmt>v</cmt>
<desc>Chenée Chemin n°5 </desc>
<link href="https://chemins.be/chenee/chemin/5"/><trkseg>
<trkpt lat="50.619150" lon="5.628130"><time>2026-05-04T16:11:09Z</time></trkpt>
<trkpt lat="50.619776" lon="5.628503"><time>2026-05-04T16:21:09Z</time></trkpt>
<trkpt lat="50.620357" lon="5.629297"><time>2026-05-04T16:31:09Z</time></trkpt>
<trkpt lat="50.620926" lon="5.631032"><time>2026-05-04T16:41:09Z</time></trkpt>
<trkpt lat="50.621096" lon="5.631056"><time>2026-05-04T16:51:09Z</time></trkpt>
<trkpt lat="50.621423" lon="5.632151"><time>2026-05-04T17:01:09Z</time></trkpt>
<trkpt lat="50.622490" lon="5.634060"><time>2026-05-04T17:11:09Z</time></trkpt>
</trkseg>
</trk>
<trk>
<name>llgcni1</name>
<cmt>v</cmt>
<desc>Chenée Sentier n°i1 </desc>
<link href="https://chemins.be/chenee/sentier/i1"/><trkseg>
<trkpt lat="50.611207" lon="5.621466"><time>2026-05-04T16:11:09Z</time></trkpt>
<trkpt lat="50.611213" lon="5.621715"><time>2026-05-04T16:21:09Z</time></trkpt>
<trkpt lat="50.611286" lon="5.621914"><time>2026-05-04T16:31:09Z</time></trkpt>
<trkpt lat="50.611337" lon="5.621938"><time>2026-05-04T16:41:09Z</time></trkpt>
</trkseg>
</trk>
<trk>
<name>llgcni2</name>
<cmt>v</cmt>
<desc>Chenée Chemin n°i2 </desc>
<link href="https://chemins.be/chenee/chemin/i2"/><trkseg>
<trkpt lat="50.610559" lon="5.626526"><time>2026-05-04T16:11:09Z</time></trkpt>
<trkpt lat="50.610205" lon="5.626551"><time>2026-05-04T16:21:09Z</time></trkpt>
<trkpt lat="50.609957" lon="5.626987"><time>2026-05-04T16:31:09Z</time></trkpt>
<trkpt lat="50.609851" lon="5.626841"><time>2026-05-04T16:41:09Z</time></trkpt>
</trkseg>
</trk>
<trk>
<name>llgcni3</name>
<cmt>v</cmt>
<desc>Chenée Chemin n°i3 </desc>
<link href="https://chemins.be/chenee/chemin/i3"/><trkseg>
<trkpt lat="50.618342" lon="5.615724"><time>2026-05-04T16:11:09Z</time></trkpt>
<trkpt lat="50.618144" lon="5.616400"><time>2026-05-04T16:21:09Z</time></trkpt>
<trkpt lat="50.618251" lon="5.616468"><time>2026-05-04T16:31:09Z</time></trkpt>
<trkpt lat="50.618217" lon="5.616752"><time>2026-05-04T16:41:09Z</time></trkpt>
</trkseg>
</trk>
<trk>
<name>llgcnL38</name>
<cmt>v</cmt>
<desc>Chenée Chemin n°L38 Ravel 5 (Ligne 38)</desc>
<link href="https://chemins.be/chenee/chemin/L38"/><trkseg>
<trkpt lat="50.610648" lon="5.629415"><time>2026-05-04T16:11:09Z</time></trkpt>
<trkpt lat="50.611005" lon="5.628068"><time>2026-05-04T16:21:09Z</time></trkpt>
<trkpt lat="50.611852" lon="5.626580"><time>2026-05-04T16:31:09Z</time></trkpt>
<trkpt lat="50.613081" lon="5.625622"><time>2026-05-04T16:41:09Z</time></trkpt>
<trkpt lat="50.615070" lon="5.624658"><time>2026-05-04T16:51:09Z</time></trkpt>
<trkpt lat="50.615986" lon="5.623876"><time>2026-05-04T17:01:09Z</time></trkpt>
<trkpt lat="50.617301" lon="5.622004"><time>2026-05-04T17:11:09Z</time></trkpt>
<trkpt lat="50.618596" lon="5.620314"><time>2026-05-04T17:21:09Z</time></trkpt>
<trkpt lat="50.619895" lon="5.619938"><time>2026-05-04T17:31:09Z</time></trkpt>
<trkpt lat="50.620408" lon="5.619881"><time>2026-05-04T17:41:09Z</time></trkpt>
<trkpt lat="50.621249" lon="5.620214"><time>2026-05-04T17:51:09Z</time></trkpt>
<trkpt lat="50.621936" lon="5.620770"><time>2026-05-04T18:01:09Z</time></trkpt>
<trkpt lat="50.622636" lon="5.621707"><time>2026-05-04T18:11:09Z</time></trkpt>
</trkseg>
</trk>
</gpx>